Satellite: COMPASS
Catalog number: 32787
Epoch time:      12306.12391204
Element set:     452
Inclination:      097.7848 deg
RA of node:       004.3524 deg
Eccentricity:    0.0014725
Arg of perigee:   336.3508 deg
Mean anomaly:     023.7042 deg
Mean motion:   14.84574317 rev/day
Decay rate:      2.061e-05 rev/day^2
Epoch rev:           24412
Checksum:              272

Satellite: AAUSAT2
Catalog number: 32788
Epoch time:      12305.85976127
Element set:     442
Inclination:      097.7847 deg
RA of node:       004.5579 deg
Eccentricity:    0.0013379
Arg of perigee:   338.3106 deg
Mean anomaly:     021.7501 deg
Mean motion:   14.84945488 rev/day
Decay rate:      2.366e-05 rev/day^2
Epoch rev:           24411
Checksum:              323

Satellite: DO-64
Catalog number: 32789
Epoch time:      12306.15780300
Element set:     460
Inclination:      097.7985 deg
RA of node:       007.4348 deg
Eccentricity:    0.0013928
Arg of perigee:   331.7117 deg
Mean anomaly:     028.3270 deg
Mean motion:   14.86846147 rev/day
Decay rate:      4.037e-05 rev/day^2
Epoch rev:           24422
Checksum:              310

Satellite: CO-66
Catalog number: 32791
Epoch time:      12306.17153016
Element set:     441
Inclination:      097.7837 deg
RA of node:       004.0211 deg
Eccentricity:    0.0014606
Arg of perigee:   337.0237 deg
Mean anomaly:     023.0310 deg
Mean motion:   14.83885144 rev/day
Decay rate:      1.182e-05 rev/day^2
Epoch rev:           24405
Checksum:              261

Satellite: RS-30
Catalog number: 32953
Epoch time:      12306.84388988
Element set:     285
Inclination:      082.5048 deg
RA of node:       209.5345 deg
Eccentricity:    0.0019895
Arg of perigee:   010.6879 deg
Mean anomaly:     349.4617 deg
Mean motion:   12.43029159 rev/day
Decay rate:        1.0e-07 rev/day^2
Epoch rev:           20166
Checksum:              323

Satellite: PHARMSAT
Catalog number: 35002
Epoch time:      12226.86484473
Element set:      78
Inclination:      040.4341 deg
RA of node:       050.6671 deg
Eccentricity:    0.0012079
Arg of perigee:   300.9773 deg
Mean anomaly:     059.0492 deg
Mean motion:   16.39309245 rev/day
Decay rate:   7.728342e-02 rev/day^2
Epoch rev:           18355
Checksum:              302

Satellite: METEOR-M
Catalog number: 35865
Epoch time:      12306.72218611
Element set:     923
Inclination:      098.6379 deg
RA of node:       358.3462 deg
Eccentricity:    0.0003078
Arg of perigee:   029.0306 deg
Mean anomaly:     331.1032 deg
Mean motion:   14.21873213 rev/day
Decay rate:        1.1e-07 rev/day^2
Epoch rev:           16214
Checksum:              264

Satellite: RS-38
Catalog number: 35869
Epoch time:      12306.72246881
Element set:     904
Inclination:      098.6329 deg
RA of node:       358.3176 deg
Eccentricity:    0.0005234
Arg of perigee:   022.8815 deg
Mean anomaly:     337.2592 deg
Mean motion:   14.22096228 rev/day
Decay rate:        7.1e-07 rev/day^2
Epoch rev:           16216
Checksum:              317

Satellite: JUGNU
Catalog number: 37839
Epoch time:      12305.90703678
Element set:     259
Inclination:      019.9581 deg
RA of node:       249.9545 deg
Eccentricity:    0.0018691
Arg of perigee:   288.8986 deg
Mean anomaly:     070.9385 deg
Mean motion:   14.12098496 rev/day
Decay rate:       6.20e-06 rev/day^2
Epoch rev:            5459
Checksum:              358

Satellite: SRMSAT
Catalog number: 37841
Epoch time:      12305.22797954
Element set:     261
Inclination:      019.9684 deg
RA of node:       261.6117 deg
Eccentricity:    0.0012413
Arg of perigee:   243.9209 deg
Mean anomaly:     115.9939 deg
Mean motion:   14.10175191 rev/day
Decay rate:       2.64e-06 rev/day^2
Epoch rev:            5441
Checksum:              291

Satellite: RAX-2
Catalog number: 37853
Epoch time:      12306.77598378
Element set:     329
Inclination:      101.7105 deg
RA of node:       049.6732 deg
Eccentricity:    0.0241290
Arg of perigee:   317.8178 deg
Mean anomaly:     040.4699 deg
Mean motion:   14.81228841 rev/day
Decay rate:      3.648e-05 rev/day^2
Epoch rev:            5475
Checksum:              329

Satellite: AUBIESAT
Catalog number: 37854
Epoch time:      12306.28561631
Element set:     328
Inclination:      101.7064 deg
RA of node:       049.3910 deg
Eccentricity:    0.0242993
Arg of perigee:   318.6800 deg
Mean anomaly:     039.6225 deg
Mean motion:   14.81719583 rev/day
Decay rate:      3.842e-05 rev/day^2
Epoch rev:            5468
Checksum:              306

Satellite: HRBE
Catalog number: 37855
Epoch time:      12306.24766839
Element set:     324
Inclination:      101.7078 deg
RA of node:       049.2424 deg
Eccentricity:    0.0244228
Arg of perigee:   319.0672 deg
Mean anomaly:     039.2424 deg
Mean motion:   14.81507655 rev/day
Decay rate:      3.420e-05 rev/day^2
Epoch rev:            5467
Checksum:              298

Satellite: RS-39
Catalog number: 38051
Epoch time:      12306.90246223
Element set:     850
Inclination:      051.6383 deg
RA of node:       222.4610 deg
Eccentricity:    0.0013791
Arg of perigee:   162.8796 deg
Mean anomaly:     314.2932 deg
Mean motion:   15.26996080 rev/day
Decay rate:     1.1726e-04 rev/day^2
Epoch rev:            4299
Checksum:              304

Satellite: E-STAR
Catalog number: 38079
Epoch time:      12306.57756466
Element set:     612
Inclination:      069.4810 deg
RA of node:       359.4855 deg
Eccentricity:    0.0696386
Arg of perigee:   073.0773 deg
Mean anomaly:     294.5443 deg
Mean motion:   14.25346157 rev/day
Decay rate:     2.7792e-04 rev/day^2
Epoch rev:            3708
Checksum:              348

Satellite: GOLIAT
Catalog number: 38085
Epoch time:      12306.25284700
Element set:     579
Inclination:      069.4836 deg
RA of node:       001.0379 deg
Eccentricity:    0.0702743
Arg of perigee:   073.9511 deg
Mean anomaly:     293.7635 deg
Mean motion:   14.24076182 rev/day
Decay rate:     2.9262e-04 rev/day^2
Epoch rev:            3701
Checksum:              299

Satellite: HORYU-2
Catalog number: 38340
Epoch time:      12306.85624717
Element set:     216
Inclination:      098.1898 deg
RA of node:       247.0006 deg
Eccentricity:    0.0011676
Arg of perigee:   253.9838 deg
Mean anomaly:     105.9975 deg
Mean motion:   14.70342946 rev/day
Decay rate:       7.78e-06 rev/day^2
Epoch rev:            2470
Checksum:              323

Satellite: RS-40
Catalog number: 38736
Epoch time:      12306.09794330
Element set:      94
Inclination:      082.4748 deg
RA of node:       297.3433 deg
Eccentricity:    0.0020062
Arg of perigee:   104.3231 deg
Mean anomaly:     256.0089 deg
Mean motion:   12.42647198 rev/day
Decay rate:        1.0e-07 rev/day^2
Epoch rev:            1191
Checksum:              277

Satellite: PROITERES
Catalog number: 38756
Epoch time:      12306.78745394
Element set:     188
Inclination:      098.2805 deg
RA of node:       013.4031 deg
Eccentricity:    0.0013724
Arg of perigee:   108.5375 deg
Mean anomaly:     251.7290 deg
Mean motion:   14.73949838 rev/day
Decay rate:       8.12e-06 rev/day^2
Epoch rev:             789
Checksum:              321

Satellite: AENEAS
Catalog number: 38760
Epoch time:      12306.36056343
Element set:    0054
Inclination:      064.6729 deg
RA of node:       252.1711 deg
Eccentricity:    0.0217993
Arg of perigee:   275.8576 deg
Mean anomaly:     081.7617 deg
Mean motion:   14.79457199 rev/day
Decay rate:      6.658e-05 rev/day^2
Epoch rev:           00715
Checksum:              331

Satellite: CSSWE-D
Catalog number: 38761
Epoch time:      12306.35798675
Element set:    0050
Inclination:      064.6739 deg
RA of node:       252.1643 deg
Eccentricity:    0.0219235
Arg of perigee:   275.9195 deg
Mean anomaly:     081.6918 deg
Mean motion:   14.79409121 rev/day
Decay rate:      4.133e-05 rev/day^2
Epoch rev:           00715
Checksum:              314

Satellite: CXBN-E
Catalog number: 38762
Epoch time:      12306.35620411
Element set:    0049
Inclination:      064.6703 deg
RA of node:       252.1550 deg
Eccentricity:    0.0218179
Arg of perigee:   275.8294 deg
Mean anomaly:     081.7824 deg
Mean motion:   14.79492911 rev/day
Decay rate:      4.191e-05 rev/day^2
Epoch rev:           00715
Checksum:              298

Satellite: OBJECT F
Catalog number: 38763
Epoch time:      12306.35611363
Element set:    0046
Inclination:      064.6731 deg
RA of node:       252.1540 deg
Eccentricity:    0.0219566
Arg of perigee:   276.0021 deg
Mean anomaly:     081.6004 deg
Mean motion:   14.79454679 rev/day
Decay rate:      3.851e-05 rev/day^2
Epoch rev:           00699
Checksum:              294

Satellite: CINEMA-G
Catalog number: 38764
Epoch time:      12306.35566432
Element set:    0046
Inclination:      064.6722 deg
RA of node:       252.1480 deg
Eccentricity:    0.0219177
Arg of perigee:   275.9605 deg
Mean anomaly:     081.6507 deg
Mean motion:   14.79480764 rev/day
Decay rate:      4.241e-05 rev/day^2
Epoch rev:           00715
Checksum:              304

Satellite: CP5
Catalog number: 38765
Epoch time:      12306.44271135
Element set:    0046
Inclination:      064.6737 deg
RA of node:       251.8638 deg
Eccentricity:    0.0218746
Arg of perigee:   275.7675 deg
Mean anomaly:     193.8868 deg
Mean motion:   14.79573998 rev/day
Decay rate:      3.983e-05 rev/day^2
Epoch rev:           00716
Checksum:              366

Satellite: RAIKO
Catalog number: 38852
Epoch time:      12306.89293625
Element set:      26
Inclination:      051.6611 deg
RA of node:       157.0864 deg
Eccentricity:    0.0018848
Arg of perigee:   223.3508 deg
Mean anomaly:     136.6000 deg
Mean motion:   15.53250527 rev/day
Decay rate:     2.7483e-04 rev/day^2
Epoch rev:             432
Checksum:              284

